Providence, RI

1:27 AM EDT on April 25, 2017 (GMT -0400)
Green State

Weather History for KPVD - August, 2013

Change the Weather History Date:

Tuesday, August 6, 2013

  Actual Average Record
Temperature  
Mean Temperature 67 °F 74 °F  
Max Temperature 80 °F 83 °F 96 °F (1918)
Min Temperature 54 °F 64 °F 50 °F (1934)
Degree Days  
Heating Degree Days 0 0  
Month to date heating degree days 0 0  
Since 1 June heating degree days 24 46  
Since 1 July heating degree days 0 3  
Cooling Degree Days 2 9  
Month to date cooling degree days 33 54  
Year to date cooling degree days 663 478  
Since 1 June cooling degree days 619 452  
Growing Degree Days 17 (Base 50)    
Moisture  
Dew Point 50 °F    
Average Humidity 60    
Maximum Humidity 89    
Minimum Humidity 30    
Precipitation  
Precipitation 0.00 in 0.12 in 1.00 in (1967)
Month to date precipitation 0.26 0.73  
Year to date precipitation 27.20 27.73  
Snow  
Snow 0.00 in 0.00 in 0.00 in (2002)
Month to date snowfall 0.0 0.0  
Since 1 June snowfall 0.0 0.0  
Since 1 July snowfall 0.0 0.0  
Snow Depth 0.00 in    
Sea Level Pressure  
Sea Level Pressure 30.12 in    
Wind  
Wind Speed 5 mph (SSW)    
Max Wind Speed 15 mph    
Max Gust Speed 20 mph    
Visibility 10 miles    
Events      
T = Trace of Precipitation, MM = Missing Value Source: NWS Daily Summary

Daily Weather History Graph

Daily Weather History Graph

Search for Another Location

Airport or City:

Trip Planner

Search our weather history database for the weather conditions in past years. The results will help you decide how hot, cold, wet, or windy it might be!

Date:

Astronomy

Aug. 06, 2013 Rise Set
Actual Time 5:45 AM EDT 7:57 PM EDT
Civil Twilight 5:14 AM EDT 8:28 PM EDT
Nautical Twilight 4:36 AM EDT 9:05 PM EDT
Astronomical Twilight 3:54 AM EDT 9:47 PM EDT
Moon 5:34 AM EDT (8/6) 7:29 PM EDT (8/6)
Length of Visible Light 15h 13m
Length of Day
14h 12m
Waning Crescent, 0% of the Moon is Illuminated
Aug 6
Waning Crescent
Aug 6
New
Aug 14
First Quarter
Aug 20
Full
Aug 28
Last Quarter

Hourly Weather History & Observations

Time (EDT) Temp. Dew Point Humidity Pressure Visibility Wind Dir Wind Speed Gust Speed Precip Events Conditions
12:51 AM 60.1 °F 52.0 °F 75% 30.06 in 10.0 mi Calm Calm - N/A   Clear
1:51 AM 57.9 °F 52.0 °F 81% 30.06 in 10.0 mi Calm Calm - N/A   Clear
2:51 AM 57.0 °F 51.1 °F 81% 30.07 in 10.0 mi West 4.6 mph - N/A   Clear
3:51 AM 55.9 °F 51.1 °F 84% 30.08 in 10.0 mi West 3.5 mph - N/A   Clear
4:51 AM 55.0 °F 51.1 °F 86% 30.09 in 10.0 mi West 3.5 mph - N/A   Clear
5:51 AM 54.0 °F 50.0 °F 86% 30.11 in 10.0 mi West 3.5 mph - N/A   Mostly Cloudy
6:51 AM 55.4 °F 51.8 °F 88% 30.12 in 10.0 mi WSW 3.5 mph - N/A   Scattered Clouds
7:51 AM 64.0 °F 50.0 °F 60% 30.13 in 10.0 mi Calm Calm - N/A   Scattered Clouds
8:51 AM 70.0 °F 48.9 °F 47% 30.13 in 10.0 mi Calm Calm - N/A   Scattered Clouds
9:51 AM 72.0 °F 46.0 °F 40% 30.14 in 10.0 mi ENE 5.8 mph - N/A   Scattered Clouds
10:51 AM 73.0 °F 45.0 °F 37% 30.14 in 10.0 mi Variable 3.5 mph - N/A   Scattered Clouds
11:51 AM 75.0 °F 46.0 °F 36% 30.13 in 10.0 mi South 6.9 mph - N/A   Scattered Clouds
12:51 PM 75.9 °F 45.0 °F 33% 30.14 in 10.0 mi Variable 5.8 mph - N/A   Scattered Clouds
1:51 PM 78.1 °F 46.9 °F 33% 30.14 in 10.0 mi SE 10.4 mph 16.1 mph N/A   Scattered Clouds
2:51 PM 79.0 °F 45.0 °F 30% 30.13 in 10.0 mi SE 15.0 mph - N/A   Scattered Clouds
3:51 PM 77.0 °F 46.9 °F 34% 30.13 in 10.0 mi South 13.8 mph - N/A   Scattered Clouds
4:51 PM 75.9 °F 51.1 °F 42% 30.13 in 10.0 mi SE 10.4 mph - N/A   Scattered Clouds
5:51 PM 75.0 °F 53.1 °F 46% 30.14 in 10.0 mi SSE 9.2 mph - N/A   Scattered Clouds
6:51 PM 73.9 °F 48.9 °F 41% 30.14 in 10.0 mi South 9.2 mph - N/A   Scattered Clouds
7:51 PM 70.0 °F 52.0 °F 53% 30.15 in 10.0 mi SSW 6.9 mph - N/A   Scattered Clouds
8:51 PM 66.0 °F 53.1 °F 63% 30.16 in 10.0 mi South 5.8 mph - N/A   Partly Cloudy
9:51 PM 64.9 °F 54.0 °F 68% 30.16 in 10.0 mi South 3.5 mph - N/A   Clear
10:51 PM 63.0 °F 57.9 °F 84% 30.16 in 10.0 mi Calm Calm - N/A   Clear
11:51 PM 62.1 °F 57.9 °F 86% 30.16 in 10.0 mi Calm Calm - N/A   Clear